TimeEST,TemperatureF,Dew PointF,Humidity,Sea Level PressureIn,VisibilityMPH,Wind Direction,Wind SpeedMPH,Gust SpeedMPH,PrecipitationIn,Events,Conditions,WindDirDegrees,DateUTC
12:54 AM,37.0,26.1,65,30.10,10.0,West,4.6,-,N/A,,Clear,280,2013-01-07 05:54:00
1:54 AM,36.0,26.1,67,30.12,10.0,West,4.6,-,N/A,,Clear,280,2013-01-07 06:54:00
2:54 AM,36.0,26.1,67,30.13,10.0,West,5.8,-,N/A,,Clear,270,2013-01-07 07:54:00
3:54 AM,36.0,26.1,67,30.15,10.0,West,3.5,-,N/A,,Overcast,260,2013-01-07 08:54:00
4:54 AM,36.0,26.1,67,30.17,10.0,West,3.5,-,N/A,,Overcast,270,2013-01-07 09:54:00
5:54 AM,34.0,26.1,73,30.20,10.0,WNW,4.6,-,N/A,,Scattered Clouds,290,2013-01-07 10:54:00
6:54 AM,35.1,27.0,72,30.24,10.0,WNW,6.9,-,N/A,,Overcast,300,2013-01-07 11:54:00
7:54 AM,36.0,28.0,73,30.27,10.0,WNW,3.5,-,N/A,,Overcast,300,2013-01-07 12:54:00
8:54 AM,37.9,28.9,70,30.31,10.0,WNW,5.8,-,N/A,,Overcast,300,2013-01-07 13:54:00
9:54 AM,41.0,28.9,62,30.32,10.0,NW,10.4,16.1,N/A,,Clear,320,2013-01-07 14:54:00
10:54 AM,44.1,27.0,51,30.35,10.0,NW,11.5,21.9,N/A,,Scattered Clouds,320,2013-01-07 15:54:00
11:54 AM,45.0,26.1,48,30.35,10.0,NNW,8.1,18.4,N/A,,Partly Cloudy,340,2013-01-07 16:54:00
12:54 PM,43.0,25.0,49,30.35,10.0,NW,9.2,-,N/A,,Scattered Clouds,310,2013-01-07 17:54:00
1:54 PM,44.1,24.1,45,30.35,10.0,NW,4.6,17.3,N/A,,Clear,320,2013-01-07 18:54:00
2:54 PM,45.0,23.0,42,30.36,10.0,NW,8.1,-,N/A,,Clear,320,2013-01-07 19:54:00
3:54 PM,44.1,23.0,43,30.38,10.0,WNW,4.6,-,N/A,,Clear,300,2013-01-07 20:54:00
4:54 PM,39.9,21.9,49,30.40,10.0,WNW,3.5,-,N/A,,Clear,300,2013-01-07 21:54:00
6:54 PM,35.1,25.0,67,30.41,10.0,Calm,Calm,-,N/A,,Clear,0,2013-01-07 23:54:00
7:54 PM,32.0,25.0,75,30.41,10.0,Calm,Calm,-,N/A,,Clear,0,2013-01-08 00:54:00
8:54 PM,32.0,25.0,75,30.41,10.0,Calm,Calm,-,N/A,,Clear,0,2013-01-08 01:54:00
9:54 PM,30.9,25.0,79,30.40,10.0,Calm,Calm,-,N/A,,Clear,0,2013-01-08 02:54:00
10:54 PM,30.0,24.1,79,30.41,10.0,Calm,Calm,-,N/A,,Clear,0,2013-01-08 03:54:00
11:54 PM,28.9,24.1,82,30.41,10.0,Calm,Calm,-,N/A,,Clear,0,2013-01-08 04:54:00